Zurück zum Katalog

COSMOS 886 DEB

AktivUNKNOWN
NORAD 9797·DEBRIS·🇷🇺 Russia

Gestartet Dec 27, 1976 von Baikonur Cosmodrome

Loading…

Nächste Überflüge (nächste 24 Stunden)

TLE

AktuellSource: Space-Track

Epoche: Sep 13, 2026, 14:59 UTC

1 09797U 76126X   26256.62467236  .00000544  00000-0  44160-3 0  9992
2 09797  65.8203 356.9993 0897491 146.0068 220.1934 12.81934597281297

Verfolge COSMOS 886 DEB in Echtzeit mit AllMySat

Download on the App Store